User: anonymous   Login
Location: Unspecified
(0.0000°N, 0.0000°E)
Time: 12:56:37
(UTC+00:00)
Language:

NOSS 2-1 (C) - Orbit

View from above orbital plane
View from above orbital plane
View from above satellite
View from above satellite

Ground track
Ground track

The orbit is defined by the following mean orbital elements,

1 20691U          26146.31713950 +.00000000 +00000-0 +28070-3 0 00009
2 20691  63.2952 270.8052 0881249  84.7628 285.3227 13.62636115    01
Epoch (UTC): 26 May 2026 07:36:40
Eccentricity: 0.0881249
inclination: 63.2952°
perigee height: 374 km
apogee height: 1679 km
right ascension of ascending node: 270.8052°
argument of perigee: 84.7628°
revolutions per day: 13.62636115
mean anomaly at epoch: 285.3227°

The dashed part of the orbit path shows where the satellite is in the earth's shadow,  

DLR